Year,Month,Day,Hour,Minute,Value (Times are PST for temperature in C)
2010,06,29,00,00,13.00
2010,06,29,00,01,13.00
2010,06,29,00,02,13.00
2010,06,29,00,03,12.90
2010,06,29,00,04,12.90
2010,06,29,00,05,12.90
2010,06,29,00,06,12.90
2010,06,29,00,07,12.90
2010,06,29,00,08,12.90
2010,06,29,00,09,12.90
2010,06,29,00,10,12.80
2010,06,29,00,11,12.80
2010,06,29,00,12,12.80
2010,06,29,00,13,12.80
2010,06,29,00,14,12.80
2010,06,29,00,15,12.80
2010,06,29,00,16,12.80
2010,06,29,00,17,12.70
2010,06,29,00,18,12.70
2010,06,29,00,19,12.70
2010,06,29,00,20,12.70
2010,06,29,00,21,12.70
2010,06,29,00,22,12.70
2010,06,29,00,23,12.70
2010,06,29,00,24,12.70
2010,06,29,00,25,12.70
2010,06,29,00,26,12.60
2010,06,29,00,27,12.60
2010,06,29,00,28,12.60
2010,06,29,00,29,12.60
2010,06,29,00,30,12.60
2010,06,29,00,31,12.60
2010,06,29,00,32,12.50
2010,06,29,00,33,12.50
2010,06,29,00,34,12.50
2010,06,29,00,35,12.40
2010,06,29,00,36,12.40
2010,06,29,00,37,12.40
2010,06,29,00,38,12.40
2010,06,29,00,39,12.40
2010,06,29,00,40,12.40
2010,06,29,00,41,12.40
2010,06,29,00,42,12.30
2010,06,29,00,43,12.30
2010,06,29,00,44,12.30
2010,06,29,00,45,12.30
2010,06,29,00,46,12.30
2010,06,29,00,47,12.30
2010,06,29,00,48,12.30
2010,06,29,00,49,12.30
2010,06,29,00,50,12.30
2010,06,29,00,51,12.30
2010,06,29,00,52,12.30
2010,06,29,00,53,12.30
2010,06,29,00,54,12.30
2010,06,29,00,55,12.30
2010,06,29,00,56,12.30
2010,06,29,00,57,12.30
2010,06,29,00,58,12.30
2010,06,29,00,59,12.30
2010,06,29,01,00,12.30
2010,06,29,01,01,12.20
2010,06,29,01,02,12.20
2010,06,29,01,03,12.20
2010,06,29,01,04,12.20
2010,06,29,01,05,12.20
2010,06,29,01,06,12.20
2010,06,29,01,07,12.20
2010,06,29,01,08,12.20
2010,06,29,01,09,12.20
2010,06,29,01,10,12.20
2010,06,29,01,11,12.20
2010,06,29,01,12,12.20
2010,06,29,01,13,12.20
2010,06,29,01,14,12.20
2010,06,29,01,15,12.20
2010,06,29,01,16,12.20
2010,06,29,01,17,12.20
2010,06,29,01,18,12.20
2010,06,29,01,19,12.20
2010,06,29,01,20,12.10
2010,06,29,01,21,12.10
2010,06,29,01,22,12.10
2010,06,29,01,23,12.10
2010,06,29,01,24,12.10
2010,06,29,01,25,12.10
2010,06,29,01,26,12.00
2010,06,29,01,27,12.00
2010,06,29,01,28,11.90
2010,06,29,01,29,11.90
2010,06,29,01,30,11.90
2010,06,29,01,31,11.80
2010,06,29,01,32,11.80
2010,06,29,01,33,11.80
2010,06,29,01,34,11.80
2010,06,29,01,35,11.70
2010,06,29,01,36,11.70
2010,06,29,01,37,11.70
2010,06,29,01,38,11.70
2010,06,29,01,39,11.70
2010,06,29,01,40,11.70
2010,06,29,01,41,11.70
2010,06,29,01,42,11.70
2010,06,29,01,43,11.70
2010,06,29,01,44,11.70
2010,06,29,01,45,11.70
2010,06,29,01,46,11.70
2010,06,29,01,47,11.70
2010,06,29,01,48,11.70
2010,06,29,01,49,11.70
2010,06,29,01,50,11.60
2010,06,29,01,51,11.60
2010,06,29,01,52,11.60
2010,06,29,01,53,11.50
2010,06,29,01,54,11.50
2010,06,29,01,55,11.50
2010,06,29,01,56,11.40
2010,06,29,01,57,11.40
2010,06,29,01,58,11.30
2010,06,29,01,59,11.30
2010,06,29,02,00,11.20
2010,06,29,02,01,11.20
2010,06,29,02,02,11.10
2010,06,29,02,03,11.10
2010,06,29,02,04,11.00
2010,06,29,02,05,11.00
2010,06,29,02,06,10.90
2010,06,29,02,07,10.90
2010,06,29,02,08,10.90
2010,06,29,02,09,10.90
2010,06,29,02,10,10.80
2010,06,29,02,11,10.80
2010,06,29,02,12,10.80
2010,06,29,02,13,10.80
2010,06,29,02,14,10.80
2010,06,29,02,15,10.80
2010,06,29,02,16,10.80
2010,06,29,02,17,10.80
2010,06,29,02,18,10.70
2010,06,29,02,19,10.70
2010,06,29,02,20,10.70
2010,06,29,02,21,10.70
2010,06,29,02,22,10.70
2010,06,29,02,23,10.70
2010,06,29,02,24,10.70
2010,06,29,02,25,10.70
2010,06,29,02,26,10.70
2010,06,29,02,27,10.70
2010,06,29,02,28,10.70
2010,06,29,02,29,10.70
2010,06,29,02,30,10.60
2010,06,29,02,31,10.60
2010,06,29,02,32,10.60
2010,06,29,02,33,10.60
2010,06,29,02,34,10.60
2010,06,29,02,35,10.50
2010,06,29,02,36,10.40
2010,06,29,02,37,10.40
2010,06,29,02,38,10.30
2010,06,29,02,39,10.30
2010,06,29,02,40,10.20
2010,06,29,02,41,10.20
2010,06,29,02,42,10.10
2010,06,29,02,43,10.10
2010,06,29,02,44,10.00
2010,06,29,02,45,10.00
2010,06,29,02,46,9.90
2010,06,29,02,47,9.90
2010,06,29,02,48,9.80
2010,06,29,02,49,9.80
2010,06,29,02,50,9.70
2010,06,29,02,51,9.70
2010,06,29,02,52,9.60
2010,06,29,02,53,9.60
2010,06,29,02,54,9.60
2010,06,29,02,55,9.50
2010,06,29,02,56,9.40
2010,06,29,02,57,9.40
2010,06,29,02,58,9.40
2010,06,29,02,59,9.30
2010,06,29,03,00,9.30
2010,06,29,03,01,9.30
2010,06,29,03,02,9.20
2010,06,29,03,03,9.20
2010,06,29,03,04,9.20
2010,06,29,03,05,9.20
2010,06,29,03,06,9.10
2010,06,29,03,07,9.10
2010,06,29,03,08,9.10
2010,06,29,03,09,9.00
2010,06,29,03,10,9.00
2010,06,29,03,11,9.00
2010,06,29,03,12,8.90
2010,06,29,03,13,8.90
2010,06,29,03,14,8.90
2010,06,29,03,15,8.90
2010,06,29,03,16,8.90
2010,06,29,03,17,8.90
2010,06,29,03,18,8.80
2010,06,29,03,19,8.80
2010,06,29,03,20,8.80
2010,06,29,03,21,8.80
2010,06,29,03,22,8.80
2010,06,29,03,23,8.80
2010,06,29,03,24,8.80
2010,06,29,03,25,8.80
2010,06,29,03,26,8.70
2010,06,29,03,27,8.70
2010,06,29,03,28,8.70
2010,06,29,03,29,8.70
2010,06,29,03,30,8.60
2010,06,29,03,31,8.60
2010,06,29,03,32,8.60
2010,06,29,03,33,8.60
2010,06,29,03,34,8.50
2010,06,29,03,35,8.50
2010,06,29,03,36,8.50
2010,06,29,03,37,8.40
2010,06,29,03,38,8.40
2010,06,29,03,39,8.40
2010,06,29,03,40,8.30
2010,06,29,03,41,8.30
2010,06,29,03,42,8.30
2010,06,29,03,43,8.30
2010,06,29,03,44,8.30
2010,06,29,03,45,8.20
2010,06,29,03,46,8.20
2010,06,29,03,47,8.20
2010,06,29,03,48,8.20
2010,06,29,03,49,8.10
2010,06,29,03,50,8.10
2010,06,29,03,51,8.10
2010,06,29,03,52,8.10
2010,06,29,03,53,8.10
2010,06,29,03,54,8.10
2010,06,29,03,55,8.10
2010,06,29,03,56,8.10
2010,06,29,03,57,8.10
2010,06,29,03,58,8.00
2010,06,29,03,59,8.00
2010,06,29,04,00,8.00
2010,06,29,04,01,8.00
2010,06,29,04,02,8.00
2010,06,29,04,03,8.00
2010,06,29,04,04,8.00
2010,06,29,04,05,8.00
2010,06,29,04,06,8.10
2010,06,29,04,07,8.00
2010,06,29,04,08,8.00
2010,06,29,04,09,8.00
2010,06,29,04,10,8.00
2010,06,29,04,11,8.00
2010,06,29,04,12,8.00
2010,06,29,04,13,8.00
2010,06,29,04,14,8.00
2010,06,29,04,15,8.00
2010,06,29,04,16,8.00
2010,06,29,04,17,8.00
2010,06,29,04,18,7.90
2010,06,29,04,19,7.90
2010,06,29,04,20,7.90
2010,06,29,04,21,7.90
2010,06,29,04,22,7.90
2010,06,29,04,23,7.90
2010,06,29,04,24,7.90
2010,06,29,04,25,7.90
2010,06,29,04,26,7.80
2010,06,29,04,27,7.80
2010,06,29,04,28,7.80
2010,06,29,04,29,7.80
2010,06,29,04,30,7.80
2010,06,29,04,31,7.80
2010,06,29,04,32,7.80
2010,06,29,04,33,7.80
2010,06,29,04,34,7.80
2010,06,29,04,35,7.80
2010,06,29,04,36,7.80
2010,06,29,04,37,7.80
2010,06,29,04,38,7.80
2010,06,29,04,39,7.80
2010,06,29,04,40,7.80
2010,06,29,04,41,7.80
2010,06,29,04,42,7.80
2010,06,29,04,43,7.80
2010,06,29,04,44,7.80
2010,06,29,04,45,7.80
2010,06,29,04,46,7.80
2010,06,29,04,47,7.80
2010,06,29,04,48,7.80
2010,06,29,04,49,7.80
2010,06,29,04,50,7.80
2010,06,29,04,51,7.80
2010,06,29,04,52,7.80
2010,06,29,04,53,7.80
2010,06,29,04,54,7.80
2010,06,29,04,55,7.80
2010,06,29,04,56,7.80
2010,06,29,04,57,7.80
2010,06,29,04,58,7.80
2010,06,29,04,59,7.80
2010,06,29,05,00,7.80
2010,06,29,05,01,7.80
2010,06,29,05,02,7.80
2010,06,29,05,03,7.80
2010,06,29,05,04,7.80
2010,06,29,05,05,7.80
2010,06,29,05,06,7.80
2010,06,29,05,07,7.80
2010,06,29,05,08,7.80
2010,06,29,05,09,7.80
2010,06,29,05,10,7.80
2010,06,29,05,11,7.90
2010,06,29,05,12,7.90
2010,06,29,05,13,7.90
2010,06,29,05,14,7.90
2010,06,29,05,15,7.80
2010,06,29,05,16,7.80
2010,06,29,05,17,7.80
2010,06,29,05,18,7.80
2010,06,29,05,19,7.80
2010,06,29,05,20,7.80
2010,06,29,05,21,7.80
2010,06,29,05,22,7.80
2010,06,29,05,23,7.80
2010,06,29,05,24,7.80
2010,06,29,05,25,7.80
2010,06,29,05,26,7.70
2010,06,29,05,27,7.70
2010,06,29,05,28,7.70
2010,06,29,05,29,7.70
2010,06,29,05,30,7.70
2010,06,29,05,31,7.70
2010,06,29,05,32,7.70
2010,06,29,05,33,7.60
2010,06,29,05,34,7.60
2010,06,29,05,35,7.60
2010,06,29,05,36,7.60
2010,06,29,05,37,7.60
2010,06,29,05,38,7.50
2010,06,29,05,39,7.50
2010,06,29,05,40,7.50
2010,06,29,05,41,7.40
2010,06,29,05,42,7.40
2010,06,29,05,43,7.40
2010,06,29,05,44,7.40
2010,06,29,05,45,7.30
2010,06,29,05,46,7.30
2010,06,29,05,47,7.30
2010,06,29,05,48,7.30
2010,06,29,05,49,7.30
2010,06,29,05,50,7.30
2010,06,29,05,51,7.30
2010,06,29,05,52,7.30
2010,06,29,05,53,7.30
2010,06,29,05,54,7.30
2010,06,29,05,55,7.30
2010,06,29,05,56,7.30
2010,06,29,05,57,7.30
2010,06,29,05,58,7.30
2010,06,29,05,59,7.30
2010,06,29,06,00,7.30
2010,06,29,06,01,7.30
2010,06,29,06,02,7.30
2010,06,29,06,03,7.30
2010,06,29,06,04,7.40
2010,06,29,06,05,7.40
2010,06,29,06,06,7.40
2010,06,29,06,07,7.40
2010,06,29,06,08,7.40
2010,06,29,06,09,7.40
2010,06,29,06,10,7.40
2010,06,29,06,11,7.40
2010,06,29,06,12,7.40
2010,06,29,06,13,7.40
2010,06,29,06,14,7.40
2010,06,29,06,15,7.40
2010,06,29,06,16,7.50
2010,06,29,06,17,7.50
2010,06,29,06,18,7.50
2010,06,29,06,19,7.50
2010,06,29,06,20,7.50
2010,06,29,06,21,7.50
2010,06,29,06,22,7.60
2010,06,29,06,23,7.60
2010,06,29,06,24,7.60
2010,06,29,06,25,7.60
2010,06,29,06,26,7.60
2010,06,29,06,27,7.60
2010,06,29,06,28,7.60
2010,06,29,06,29,7.60
2010,06,29,06,30,7.60
2010,06,29,06,31,7.60
2010,06,29,06,32,7.60
2010,06,29,06,33,7.60
2010,06,29,06,34,7.60
2010,06,29,06,35,7.60
2010,06,29,06,36,7.60
2010,06,29,06,37,7.60
2010,06,29,06,38,7.60
2010,06,29,06,39,7.60
2010,06,29,06,40,7.60
2010,06,29,06,41,7.60
2010,06,29,06,42,7.60
2010,06,29,06,43,7.60
2010,06,29,06,44,7.60
2010,06,29,06,45,7.60
2010,06,29,06,46,7.60
2010,06,29,06,47,7.60
2010,06,29,06,48,7.60
2010,06,29,06,49,7.60
2010,06,29,06,50,7.60
2010,06,29,06,51,7.60
2010,06,29,06,52,7.60
2010,06,29,06,53,7.60
2010,06,29,06,54,7.60
2010,06,29,06,55,7.60
2010,06,29,06,56,7.70
2010,06,29,06,57,7.70
2010,06,29,06,58,7.70
2010,06,29,06,59,7.70
2010,06,29,07,00,7.70
2010,06,29,07,01,7.80
2010,06,29,07,02,7.80
2010,06,29,07,03,7.80
2010,06,29,07,04,7.80
2010,06,29,07,05,7.80
2010,06,29,07,06,7.80
2010,06,29,07,07,7.80
2010,06,29,07,08,7.80
2010,06,29,07,09,7.80
2010,06,29,07,10,7.90
2010,06,29,07,11,7.90
2010,06,29,07,12,7.90
2010,06,29,07,13,7.90
2010,06,29,07,14,7.90
2010,06,29,07,15,8.00
2010,06,29,07,16,8.00
2010,06,29,07,17,8.00
2010,06,29,07,18,8.00
2010,06,29,07,19,8.10
2010,06,29,07,20,8.10
2010,06,29,07,21,8.10
2010,06,29,07,22,8.10
2010,06,29,07,23,8.10
2010,06,29,07,24,8.10
2010,06,29,07,25,8.20
2010,06,29,07,26,8.20
2010,06,29,07,27,8.30
2010,06,29,07,28,8.30
2010,06,29,07,29,8.40
2010,06,29,07,30,8.50
2010,06,29,07,31,8.60
2010,06,29,07,32,8.70
2010,06,29,07,33,8.80
2010,06,29,07,34,9.00
2010,06,29,07,35,9.10
2010,06,29,07,36,9.20
2010,06,29,07,37,9.30
2010,06,29,07,38,9.40
2010,06,29,07,39,9.50
2010,06,29,07,40,9.60
2010,06,29,07,41,9.70
2010,06,29,07,42,9.80
2010,06,29,07,43,9.90
2010,06,29,07,44,10.10
2010,06,29,07,45,10.20
2010,06,29,07,46,10.30
2010,06,29,07,47,10.50
2010,06,29,07,48,10.60
2010,06,29,07,49,10.70
2010,06,29,07,50,10.80
2010,06,29,07,51,10.80
2010,06,29,07,52,11.00
2010,06,29,07,53,11.10
2010,06,29,07,54,11.20
2010,06,29,07,55,11.20
2010,06,29,07,56,11.30
2010,06,29,07,57,11.40
2010,06,29,07,58,11.50
2010,06,29,07,59,11.50
2010,06,29,08,00,11.60
2010,06,29,08,01,11.70
2010,06,29,08,02,11.80
2010,06,29,08,03,11.90
2010,06,29,08,04,12.00
2010,06,29,08,05,12.10
2010,06,29,08,06,12.20
2010,06,29,08,07,12.20
2010,06,29,08,08,12.30
2010,06,29,08,09,12.40
2010,06,29,08,10,12.50
2010,06,29,08,11,12.60
2010,06,29,08,12,12.60
2010,06,29,08,13,12.70
2010,06,29,08,14,12.80
2010,06,29,08,15,12.90
2010,06,29,08,16,12.90
2010,06,29,08,17,13.00
2010,06,29,08,18,13.10
2010,06,29,08,19,13.10
2010,06,29,08,20,13.20
2010,06,29,08,21,13.30
2010,06,29,08,22,13.30
2010,06,29,08,23,13.40
2010,06,29,08,24,13.40
2010,06,29,08,25,13.50
2010,06,29,08,26,13.50
2010,06,29,08,27,13.60
2010,06,29,08,28,13.70
2010,06,29,08,29,13.70
2010,06,29,08,30,13.80
2010,06,29,08,31,13.80
2010,06,29,08,32,13.90
2010,06,29,08,33,14.00
2010,06,29,08,34,14.00
2010,06,29,08,35,14.10
2010,06,29,08,36,14.20
2010,06,29,08,37,14.30
2010,06,29,08,38,14.40
2010,06,29,08,39,14.40
2010,06,29,08,40,14.50
2010,06,29,08,41,14.60
2010,06,29,08,42,14.60
2010,06,29,08,43,14.60
2010,06,29,08,44,14.60
2010,06,29,08,45,14.60
2010,06,29,08,46,14.60
2010,06,29,08,47,14.60
2010,06,29,08,48,14.60
2010,06,29,08,49,14.60
2010,06,29,08,50,14.70
2010,06,29,08,51,14.70
2010,06,29,08,52,14.70
2010,06,29,08,53,14.80
2010,06,29,08,54,14.80
2010,06,29,08,55,14.80
2010,06,29,08,56,14.90
2010,06,29,08,57,15.00
2010,06,29,08,58,15.00
2010,06,29,08,59,15.00
2010,06,29,09,00,15.00
2010,06,29,09,01,15.00
2010,06,29,09,02,15.00
2010,06,29,09,03,15.00
2010,06,29,09,04,15.00
2010,06,29,09,05,15.10
2010,06,29,09,06,15.20
2010,06,29,09,07,15.20
2010,06,29,09,08,15.30
2010,06,29,09,09,15.30
2010,06,29,09,10,15.30
2010,06,29,09,11,15.30
2010,06,29,09,12,15.30
2010,06,29,09,13,15.30
2010,06,29,09,14,15.30
2010,06,29,09,15,15.30
2010,06,29,09,16,15.30
2010,06,29,09,17,15.40
2010,06,29,09,18,15.40
2010,06,29,09,19,15.50
2010,06,29,09,20,15.60
2010,06,29,09,21,15.50
2010,06,29,09,22,15.60
2010,06,29,09,23,15.60
2010,06,29,09,24,15.70
2010,06,29,09,25,15.70
2010,06,29,09,26,15.70
2010,06,29,09,27,15.60
2010,06,29,09,28,15.60
2010,06,29,09,29,15.60
2010,06,29,09,30,15.60
2010,06,29,09,31,15.70
2010,06,29,09,32,15.70
2010,06,29,09,33,15.80
2010,06,29,09,34,15.90
2010,06,29,09,35,15.90
2010,06,29,09,36,15.90
2010,06,29,09,37,15.90
2010,06,29,09,38,15.90
2010,06,29,09,39,15.80
2010,06,29,09,40,15.80
2010,06,29,09,41,15.80
2010,06,29,09,42,15.70
2010,06,29,09,43,15.70
2010,06,29,09,44,15.70
2010,06,29,09,45,15.70
2010,06,29,09,46,15.70
2010,06,29,09,47,15.80
2010,06,29,09,48,15.90
2010,06,29,09,49,16.00
2010,06,29,09,50,16.10
2010,06,29,09,51,16.20
2010,06,29,09,52,16.20
2010,06,29,09,53,16.20
2010,06,29,09,54,16.20
2010,06,29,09,55,16.30
2010,06,29,09,56,16.30
2010,06,29,09,57,16.30
2010,06,29,09,58,16.30
2010,06,29,09,59,16.30
2010,06,29,10,00,16.30
2010,06,29,10,01,16.40
2010,06,29,10,02,16.50
2010,06,29,10,03,16.40
2010,06,29,10,04,16.40
2010,06,29,10,05,16.30
2010,06,29,10,06,16.30
2010,06,29,10,07,16.40
2010,06,29,10,08,16.40
2010,06,29,10,09,16.50
2010,06,29,10,10,16.50
2010,06,29,10,11,16.70
2010,06,29,10,12,16.70
2010,06,29,10,13,16.80
2010,06,29,10,14,16.90
2010,06,29,10,15,16.90
2010,06,29,10,16,16.90
2010,06,29,10,17,16.90
2010,06,29,10,18,16.80
2010,06,29,10,19,16.80
2010,06,29,10,20,16.80
2010,06,29,10,21,16.80
2010,06,29,10,22,16.70
2010,06,29,10,23,16.70
2010,06,29,10,24,16.70
2010,06,29,10,25,16.70
2010,06,29,10,26,16.70
2010,06,29,10,27,16.80
2010,06,29,10,28,16.80
2010,06,29,10,29,17.00
2010,06,29,10,30,17.00
2010,06,29,10,31,17.10
2010,06,29,10,32,17.10
2010,06,29,10,33,17.10
2010,06,29,10,34,17.20
2010,06,29,10,35,17.30
2010,06,29,10,36,17.40
2010,06,29,10,37,17.50
2010,06,29,10,38,17.50
2010,06,29,10,39,17.60
2010,06,29,10,40,17.60
2010,06,29,10,41,17.50
2010,06,29,10,42,17.40
2010,06,29,10,43,17.40
2010,06,29,10,44,17.30
2010,06,29,10,45,17.30
2010,06,29,10,46,17.40
2010,06,29,10,47,17.60
2010,06,29,10,48,17.70
2010,06,29,10,49,17.70
2010,06,29,10,50,17.70
2010,06,29,10,51,17.70
2010,06,29,10,52,17.60
2010,06,29,10,53,17.60
2010,06,29,10,54,17.50
2010,06,29,10,55,17.50
2010,06,29,10,56,17.50
2010,06,29,10,57,17.50
2010,06,29,10,58,17.40
2010,06,29,10,59,17.40
2010,06,29,11,00,17.40
2010,06,29,11,01,17.40
2010,06,29,11,02,17.40
2010,06,29,11,03,17.40
2010,06,29,11,04,17.40
2010,06,29,11,05,17.30
2010,06,29,11,06,17.20
2010,06,29,11,07,17.30
2010,06,29,11,08,17.30
2010,06,29,11,09,17.40
2010,06,29,11,10,17.50
2010,06,29,11,11,17.60
2010,06,29,11,12,17.70
2010,06,29,11,13,17.80
2010,06,29,11,14,17.90
2010,06,29,11,15,18.00
2010,06,29,11,16,18.10
2010,06,29,11,17,18.10
2010,06,29,11,18,18.20
2010,06,29,11,19,18.20
2010,06,29,11,20,18.30
2010,06,29,11,21,18.30
2010,06,29,11,22,18.30
2010,06,29,11,23,18.10
2010,06,29,11,24,18.00
2010,06,29,11,25,17.90
2010,06,29,11,26,17.90
2010,06,29,11,27,17.80
2010,06,29,11,28,17.90
2010,06,29,11,29,17.90
2010,06,29,11,30,17.90
2010,06,29,11,31,18.00
2010,06,29,11,32,18.00
2010,06,29,11,33,18.10
2010,06,29,11,34,18.10
2010,06,29,11,35,18.10
2010,06,29,11,36,18.10
2010,06,29,11,37,18.10
2010,06,29,11,38,18.10
2010,06,29,11,39,18.10
2010,06,29,11,40,18.20
2010,06,29,11,41,18.10
2010,06,29,11,42,18.10
2010,06,29,11,43,18.10
2010,06,29,11,44,18.10
2010,06,29,11,45,18.10
2010,06,29,11,46,18.10
2010,06,29,11,47,18.10
2010,06,29,11,48,18.10
2010,06,29,11,49,18.20
2010,06,29,11,50,18.30
2010,06,29,11,51,18.30
2010,06,29,11,52,18.40
2010,06,29,11,53,18.40
2010,06,29,11,54,18.50
2010,06,29,11,55,18.50
2010,06,29,11,56,18.40
2010,06,29,11,57,18.30
2010,06,29,11,58,18.20
2010,06,29,11,59,18.10
2010,06,29,12,00,18.10
2010,06,29,12,01,18.20
2010,06,29,12,02,18.20
2010,06,29,12,03,18.30
2010,06,29,12,04,18.30
2010,06,29,12,05,18.40
2010,06,29,12,06,18.40
2010,06,29,12,07,18.50
2010,06,29,12,08,18.60
2010,06,29,12,09,18.60
2010,06,29,12,10,18.60
2010,06,29,12,11,18.70
2010,06,29,12,12,18.70
2010,06,29,12,13,18.80
2010,06,29,12,14,18.80
2010,06,29,12,15,18.70
2010,06,29,12,16,18.60
2010,06,29,12,17,18.60
2010,06,29,12,18,18.40
2010,06,29,12,19,18.30
2010,06,29,12,20,18.40
2010,06,29,12,21,18.40
2010,06,29,12,22,18.40
2010,06,29,12,23,18.40
2010,06,29,12,24,18.40
2010,06,29,12,25,18.30
2010,06,29,12,26,18.40
2010,06,29,12,27,18.50
2010,06,29,12,28,18.60
2010,06,29,12,29,18.70
2010,06,29,12,30,18.70
2010,06,29,12,31,18.80
2010,06,29,12,32,18.80
2010,06,29,12,33,18.90
2010,06,29,12,34,18.80
2010,06,29,12,35,18.80
2010,06,29,12,36,18.80
2010,06,29,12,37,18.80
2010,06,29,12,38,18.70
2010,06,29,12,39,18.60
2010,06,29,12,40,18.50
2010,06,29,12,41,18.50
2010,06,29,12,42,18.40
2010,06,29,12,43,18.30
2010,06,29,12,44,18.20
2010,06,29,12,45,18.10
2010,06,29,12,46,18.10
2010,06,29,12,47,18.10
2010,06,29,12,48,18.10
2010,06,29,12,49,18.10
2010,06,29,12,50,18.10
2010,06,29,12,51,18.20
2010,06,29,12,52,18.30
2010,06,29,12,53,18.40
2010,06,29,12,54,18.50
2010,06,29,12,55,18.50
2010,06,29,12,56,18.40
2010,06,29,12,57,18.40
2010,06,29,12,58,18.30
2010,06,29,12,59,18.20
2010,06,29,13,00,18.20
2010,06,29,13,01,18.20
2010,06,29,13,02,18.00
2010,06,29,13,03,17.90
2010,06,29,13,04,17.80
2010,06,29,13,05,17.80
2010,06,29,13,06,17.70
2010,06,29,13,07,17.70
2010,06,29,13,08,17.60
2010,06,29,13,09,17.60
2010,06,29,13,10,17.60
2010,06,29,13,11,17.60
2010,06,29,13,12,17.50
2010,06,29,13,13,17.50
2010,06,29,13,14,17.40
2010,06,29,13,15,17.40
2010,06,29,13,16,17.40
2010,06,29,13,17,17.30
2010,06,29,13,18,17.30
2010,06,29,13,19,17.30
2010,06,29,13,20,17.40
2010,06,29,13,21,17.50
2010,06,29,13,22,17.50
2010,06,29,13,23,17.50
2010,06,29,13,24,17.60
2010,06,29,13,25,17.60
2010,06,29,13,26,17.60
2010,06,29,13,27,17.50
2010,06,29,13,28,17.50
2010,06,29,13,29,17.50
2010,06,29,13,30,17.50
2010,06,29,13,31,17.60
2010,06,29,13,32,17.60
2010,06,29,13,33,17.70
2010,06,29,13,34,17.70
2010,06,29,13,35,17.70
2010,06,29,13,36,17.80
2010,06,29,13,37,17.80
2010,06,29,13,38,17.80
2010,06,29,13,39,17.80
2010,06,29,13,40,17.80
2010,06,29,13,41,17.90
2010,06,29,13,42,18.00
2010,06,29,13,43,18.10
2010,06,29,13,44,18.10
2010,06,29,13,45,18.10
2010,06,29,13,46,18.10
2010,06,29,13,47,18.10
2010,06,29,13,48,18.00
2010,06,29,13,49,17.90
2010,06,29,13,50,17.80
2010,06,29,13,51,17.70
2010,06,29,13,52,17.70
2010,06,29,13,53,17.70
2010,06,29,13,54,17.70
2010,06,29,13,55,17.70
2010,06,29,13,56,17.70
2010,06,29,13,57,17.70
2010,06,29,13,58,17.70
2010,06,29,13,59,17.60
2010,06,29,14,00,17.70
2010,06,29,14,01,17.70
2010,06,29,14,02,17.70
2010,06,29,14,03,17.60
2010,06,29,14,04,17.60
2010,06,29,14,05,17.70
2010,06,29,14,06,17.70
2010,06,29,14,07,17.80
2010,06,29,14,08,17.90
2010,06,29,14,09,18.00
2010,06,29,14,10,18.20
2010,06,29,14,11,18.30
2010,06,29,14,12,18.50
2010,06,29,14,13,18.60
2010,06,29,14,14,18.60
2010,06,29,14,15,18.60
2010,06,29,14,16,18.70
2010,06,29,14,17,18.80
2010,06,29,14,18,18.90
2010,06,29,14,19,19.00
2010,06,29,14,20,19.10
2010,06,29,14,21,19.30
2010,06,29,14,22,19.40
2010,06,29,14,23,19.40
2010,06,29,14,24,19.40
2010,06,29,14,25,19.30
2010,06,29,14,26,19.30
2010,06,29,14,27,19.30
2010,06,29,14,28,19.20
2010,06,29,14,29,19.20
2010,06,29,14,30,19.20
2010,06,29,14,31,19.20
2010,06,29,14,32,19.10
2010,06,29,14,33,19.00
2010,06,29,14,34,19.00
2010,06,29,14,35,18.80
2010,06,29,14,36,18.80
2010,06,29,14,37,18.80
2010,06,29,14,38,18.70
2010,06,29,14,39,18.60
2010,06,29,14,40,18.40
2010,06,29,14,41,18.30
2010,06,29,14,42,18.30
2010,06,29,14,43,18.30
2010,06,29,14,44,18.30
2010,06,29,14,45,18.30
2010,06,29,14,46,18.30
2010,06,29,14,47,18.30
2010,06,29,14,48,18.30
2010,06,29,14,49,18.20
2010,06,29,14,50,18.10
2010,06,29,14,51,18.00
2010,06,29,14,52,17.90
2010,06,29,14,53,17.90
2010,06,29,14,54,17.90
2010,06,29,14,55,17.90
2010,06,29,14,56,17.90
2010,06,29,14,57,17.90
2010,06,29,14,58,17.90
2010,06,29,14,59,17.90
2010,06,29,15,00,17.80
2010,06,29,15,01,17.80
2010,06,29,15,02,17.80
2010,06,29,15,03,17.70
2010,06,29,15,04,17.60
2010,06,29,15,05,17.50
2010,06,29,15,06,17.50
2010,06,29,15,07,17.40
2010,06,29,15,08,17.30
2010,06,29,15,09,17.30
2010,06,29,15,10,17.30
2010,06,29,15,11,17.30
2010,06,29,15,12,17.30
2010,06,29,15,13,17.30
2010,06,29,15,14,17.40
2010,06,29,15,15,17.40
2010,06,29,15,16,17.30
2010,06,29,15,17,17.30
2010,06,29,15,18,17.30
2010,06,29,15,19,17.30
2010,06,29,15,20,17.30
2010,06,29,15,21,17.30
2010,06,29,15,22,17.30
2010,06,29,15,23,17.30
2010,06,29,15,24,17.30
2010,06,29,15,25,17.40
2010,06,29,15,26,17.40
2010,06,29,15,27,17.40
2010,06,29,15,28,17.30
2010,06,29,15,29,17.30
2010,06,29,15,30,17.20
2010,06,29,15,31,17.20
2010,06,29,15,32,17.10
2010,06,29,15,33,17.00
2010,06,29,15,34,17.00
2010,06,29,15,35,16.90
2010,06,29,15,36,16.90
2010,06,29,15,37,16.90
2010,06,29,15,38,17.00
2010,06,29,15,39,17.00
2010,06,29,15,40,17.00
2010,06,29,15,41,17.00
2010,06,29,15,42,17.00
2010,06,29,15,43,16.90
2010,06,29,15,44,16.90
2010,06,29,15,45,17.00
2010,06,29,15,46,17.00
2010,06,29,15,47,17.00
2010,06,29,15,48,17.00
2010,06,29,15,49,17.00
2010,06,29,15,50,17.10
2010,06,29,15,51,17.10
2010,06,29,15,52,17.00
2010,06,29,15,53,17.00
2010,06,29,15,54,17.00
2010,06,29,15,55,17.00
2010,06,29,15,56,17.10
2010,06,29,15,57,17.10
2010,06,29,15,58,17.20
2010,06,29,15,59,17.20
2010,06,29,16,00,17.20
2010,06,29,16,01,17.20
2010,06,29,16,02,17.20
2010,06,29,16,03,17.20
2010,06,29,16,04,17.20
2010,06,29,16,05,17.20
2010,06,29,16,06,17.20
2010,06,29,16,07,17.20
2010,06,29,16,08,17.30
2010,06,29,16,09,17.30
2010,06,29,16,10,17.30
2010,06,29,16,11,17.30
2010,06,29,16,12,17.30
2010,06,29,16,13,17.40
2010,06,29,16,14,17.40
2010,06,29,16,15,17.50
2010,06,29,16,16,17.60
2010,06,29,16,17,17.70
2010,06,29,16,18,17.70
2010,06,29,16,19,17.70
2010,06,29,16,20,17.70
2010,06,29,16,21,17.70
2010,06,29,16,22,17.70
2010,06,29,16,23,17.70
2010,06,29,16,24,17.70
2010,06,29,16,25,17.60
2010,06,29,16,26,17.60
2010,06,29,16,27,17.50
2010,06,29,16,28,17.50
2010,06,29,16,29,17.40
2010,06,29,16,30,17.40
2010,06,29,16,31,17.40
2010,06,29,16,32,17.40
2010,06,29,16,33,17.40
2010,06,29,16,34,17.50
2010,06,29,16,35,17.60
2010,06,29,16,36,17.70
2010,06,29,16,37,17.70
2010,06,29,16,38,17.70
2010,06,29,16,39,17.80
2010,06,29,16,40,17.90
2010,06,29,16,41,18.00
2010,06,29,16,42,18.00
2010,06,29,16,43,18.00
2010,06,29,16,44,18.00
2010,06,29,16,45,18.00
2010,06,29,16,46,18.00
2010,06,29,16,47,17.90
2010,06,29,16,48,17.90
2010,06,29,16,49,17.80
2010,06,29,16,50,17.70
2010,06,29,16,51,17.60
2010,06,29,16,52,17.40
2010,06,29,16,53,17.20
2010,06,29,16,54,17.00
2010,06,29,16,55,16.90
2010,06,29,16,56,16.90
2010,06,29,16,57,16.80
2010,06,29,16,58,16.80
2010,06,29,16,59,16.80
2010,06,29,17,00,16.80
2010,06,29,17,01,16.80
2010,06,29,17,02,16.80
2010,06,29,17,03,16.70
2010,06,29,17,04,16.70
2010,06,29,17,05,16.70
2010,06,29,17,06,16.70
2010,06,29,17,07,16.80
2010,06,29,17,08,16.80
2010,06,29,17,09,16.80
2010,06,29,17,10,16.80
2010,06,29,17,11,16.80
2010,06,29,17,12,16.80
2010,06,29,17,13,16.80
2010,06,29,17,14,16.80
2010,06,29,17,15,16.90
2010,06,29,17,16,16.90
2010,06,29,17,17,17.00
2010,06,29,17,18,17.10
2010,06,29,17,19,17.20
2010,06,29,17,20,17.20
2010,06,29,17,21,17.30
2010,06,29,17,22,17.30
2010,06,29,17,23,17.30
2010,06,29,17,24,17.30
2010,06,29,17,25,17.30
2010,06,29,17,26,17.20
2010,06,29,17,27,17.10
2010,06,29,17,28,17.00
2010,06,29,17,29,16.90
2010,06,29,17,30,16.90
2010,06,29,17,31,16.80
2010,06,29,17,32,16.80